Tracking 28902 objects as of 19-May-2024
HD Live streaming from Space Station
objects crossing your sky now

ERS 1 DEB

Track ERS 1 DEB now!
10-day predictions


NORAD ID: 35262
Int'l Code: 1991-050R
Perigee: 689.0 km
Apogee: 712.0 km
Inclination: 98.5 °
Period: 98.6 minutes
Semi major axis: 7071 km
RCS: 0.0171 m2 (small)
Launch date: July 17, 1991
Source: European Space Agency (ESA)
Launch site: FRENCH GUIANA (FRGUI)

Note: This is SATELLITE DEBRIS
Your satellite tracking list
Your tracking list is empty




NASA's NSSDC Master Catalog

Two Line Element Set (TLE):
1 35262U 91050R   24139.90344101  .00012375  00000-0  25834-2 0  9996
2 35262  98.4561 131.6457 0016237 247.1075 178.4340 14.59947587728828
Source of the keplerian elements: AFSPC